Location: Castifao
(42.5040°N, 9.1124°E)
Time: 21:39:21
(UTC+00:00)

ATLAS CENTAUR R/B - Pass Details

Date: 23 January 2020
Orbit: 458 x 690 km, 64.6° (Epoch: 06 February)

Event Time Altitude Azimuth Distance (km) Brightness Sun altitude
Rises 17:22:26 0° 338° (NNW) 2,775 5.0 -10.7°
Reaches altitude 10° 17:25:31 10° 1° (N) 1,819 3.8 -11.3°
Maximum altitude 17:27:59 15° 39° (NE) 1,459 3.0 -11.7°
Enters shadow 17:28:32 15° 48° (NE) 1,468 2.9 -11.8°
